Quick links : Home Page : Contact Us : Index : Site Map : Search Site : Ephemerides


(115499) 2003 UO26

Orbital Elements

The following orbital elements are taken from MPO 83592
(115499) 2003 UO26
Epoch 2007 Oct. 27.0 TT = JDT 2454400.5                 MPC
M  31.38984              (2000.0)            P               Q
n   0.24089106     Peri.  244.27666     +0.84893161     +0.51976280
a   2.5581279      Node    84.27258     -0.44385505     +0.79948608
e   0.2226405      Incl.    5.52023     -0.28689338     +0.30111235
P   4.09           H   17.5           G   0.15           U   2
From 76 observations at 5 oppositions, 1995-2005, mean residual 0".77.
An explanation of the orbital elements is available.

These orbital elements are also available in forms suitable for loading into a number of popular planetarium-type software programs.


Ephemeris

The following ephemeris is at intervals of five days. A daily ephemeris covering the same time interval is also available.

Personalized ephemerides for this (and other) objects may be generated using the Minor Planet & Comet Ephemeris Service.

Date    TT    R. A. (2000) Decl.     Delta      r     Elong.  Phase     V
2008 04 14    03 31.39   +17 45.3    3.320    2.509    30.6    11.7    22.8

Back to Observable Critical-List Minor Planets

MPC

Valid HTML 4.01!